Location: Gleizolles
(44.4833°N, 6.7667°E)
Time: 17:14:11
(UTC+00:00)

Transit 2A - Pass Details

Date: 26 June 2024
Orbit: 591 x 960 km, 66.7° (Epoch: 16 July)

Event Time Altitude Azimuth Distance (km) Brightness Sun altitude
Rises 19:57:01 0° 333° (NNW) 3,476 10.9 -5.8°
Reaches altitude 10° 20:00:37 10° 355° (N) 2,598 9.5 -6.3°
Maximum altitude 20:04:11 16° 31° (NNE) 2,258 8.6 -6.7°
Drops below altitude 10° 20:07:49 10° 66° (ENE) 2,677 8.6 -7.2°
Sets 20:11:36 0° 88° (E) 3,639 9.1 -7.7°
